{"data":{"norad_id":67463,"intl_designator":"2026-008U","name":"STARLINK-36505","alt_names":[],"object_type":"PAYLOAD","status":"ACTIVE","operator":null,"country":"US","launch_date":"2026-01-14","launch_site_code":"AFETR","launch_vehicle":null,"mission":null,"orbit_class":"UNKNOWN","rcs_meters":null,"size_class":null,"mass_kg":null,"dimensions":null,"purposes":["comms"],"wikipedia_slug":null,"has_3d_model":false,"image_url":null,"decayed_at":null,"tle_current":{"epoch":"2026-05-24T23:56:39.018048Z","epoch_age_seconds":68416,"freshness":"FRESH","line1":"1 67463U 26008U   26144.99767382  .00013552  00000+0  50117-3 0  9992","line2":"2 67463  42.9990 134.1752 0000904 271.2782  88.7966 15.27573905 21243","mean_motion":15.27573905,"eccentricity":9.04e-5,"inclination_deg":42.999,"raan_deg":134.1752,"arg_perigee_deg":271.2782,"mean_anomaly_deg":88.7966,"bstar":0.00050117,"rev_number":2124,"period_min":94.267124836752,"perigee_km":482.44709385006,"apogee_km":483.68759959594,"semimajor_km":6861.204346723,"source":"CELESTRAK","updated_at":"2026-05-25T13:38:21.563256Z"}}}